North Bend, OR

6:47 PM PST on February 09, 2016 (GMT -0800)
North Bend Municipal

Weather History for KOTH - October, 2012

Change the Weather History Date:

Saturday, October 20, 2012

  Actual Average Record
Temperature  
Mean Temperature 53 °F 53 °F  
Max Temperature 59 °F 60 °F 91 °F (1925)
Min Temperature 46 °F 46 °F 32 °F (1949)
Degree Days  
Heating Degree Days 12 12  
Month to date heating degree days 188 218  
Since 1 July heating degree days 787 826  
Cooling Degree Days 0 0  
Month to date cooling degree days 1 0  
Year to date cooling degree days 1 2  
Growing Degree Days 2 (Base 50)    
Moisture  
Dew Point 48 °F    
Average Humidity 87    
Maximum Humidity 100    
Minimum Humidity 53    
Precipitation  
Precipitation 0.02 in 0.17 in 2.04 in (1985)
Month to date precipitation 1.89 2.43  
Year to date precipitation 30.69 41.25  
Sea Level Pressure  
Sea Level Pressure 30.02 in    
Wind  
Wind Speed 5 mph (SSW)    
Max Wind Speed 10 mph    
Max Gust Speed 17 mph    
Visibility 8 miles    
Events      
T = Trace of Precipitation, MM = Missing Value Source: NWS Daily Summary

Daily Weather History Graph

Daily Weather History Graph

Search for Another Location

Airport or City:

Trip Planner

Search our weather history database for the weather conditions in past years. The results will help you decide how hot, cold, wet, or windy it might be!

Date:

Astronomy

Oct. 20, 2012 Rise Set
Actual Time 7:37 AM PDT 6:24 PM PDT
Civil Twilight 7:08 AM PDT 6:53 PM PDT
Nautical Twilight 6:35 AM PDT 7:27 PM PDT
Astronomical Twilight 6:02 AM PDT 8:00 PM PDT
Moon 1:23 PM PDT (10/20) 11:12 PM PDT (10/20)
Length of Visible Light 11h 45m
Length of Day
10h 46m
Waxing Crescent, 35% of the Moon is Illuminated
Oct 20
Waxing Crescent
Oct 21
First Quarter
Oct 29
Full
Nov 6
Last Quarter
Nov 13
New

Hourly Weather History & Observations

Time (PDT) Temp. Windchill Dew Point Humidity Pressure Visibility Wind Dir Wind Speed Gust Speed Precip Events Conditions
12:15 AM 55.4 °F - 53.6 °F 94% 29.99 in 10.0 mi WSW 8.1 mph - N/A   Overcast
12:35 AM 53.6 °F - 51.8 °F 94% 30.00 in 5.0 mi NW 12.7 mph 17.3 mph 0.03 in   Overcast
12:55 AM 53.6 °F - 53.6 °F 100% 30.01 in 6.0 mi NW 10.4 mph 17.3 mph 0.05 in   Mostly Cloudy
1:15 AM 53.6 °F - 53.6 °F 100% 30.02 in 8.0 mi NNW 11.5 mph - 0.01 in   Overcast
1:35 AM 53.6 °F - 53.6 °F 100% 30.02 in 10.0 mi NNW 8.1 mph - 0.01 in   Overcast
1:55 AM 53.6 °F - 53.6 °F 100% 30.03 in 10.0 mi NNW 4.6 mph - 0.01 in   Overcast
2:15 AM 53.6 °F - 53.6 °F 100% 30.03 in 10.0 mi Calm Calm - N/A   Overcast
2:35 AM 53.6 °F - 51.8 °F 94% 30.03 in 10.0 mi Calm Calm - N/A   Overcast
2:55 AM 53.6 °F - 51.8 °F 94% 30.03 in 10.0 mi Calm Calm - N/A   Overcast
3:15 AM 53.6 °F - 51.8 °F 94% 30.03 in 10.0 mi Calm Calm - N/A   Mostly Cloudy
3:35 AM 53.6 °F - 51.8 °F 94% 30.03 in 10.0 mi Calm Calm - 0.01 in   Overcast
3:55 AM 53.6 °F - 51.8 °F 94% 30.03 in 10.0 mi Calm Calm - 0.01 in   Overcast
4:15 AM 51.8 °F - 51.8 °F 100% 30.03 in 10.0 mi Calm Calm - N/A   Overcast
4:35 AM 51.8 °F - 51.8 °F 100% 30.03 in 8.0 mi Calm Calm - N/A   Partly Cloudy
4:55 AM 50.0 °F - 48.2 °F 94% 30.03 in 5.0 mi Calm Calm - N/A   Clear
5:15 AM 48.2 °F - 48.2 °F 100% 30.03 in 0.5 mi Calm Calm - N/A   Mostly Cloudy
5:35 AM 50.0 °F - 48.2 °F 94% 30.04 in 1.0 mi Calm Calm - N/A   Overcast
5:55 AM 48.2 °F - 46.4 °F 93% 30.04 in 0.8 mi SSE 3.5 mph - N/A   Mostly Cloudy
6:15 AM 48.2 °F - 48.2 °F 100% 30.04 in 1.5 mi Calm Calm - N/A   Scattered Clouds
6:35 AM 46.4 °F - 46.4 °F 100% 30.04 in 0.5 mi Calm Calm - N/A   Mostly Cloudy
6:55 AM 46.4 °F 45.2 °F 46.4 °F 100% 30.04 in 2.0 mi South 3.5 mph - N/A   Mostly Cloudy
7:15 AM 46.4 °F 45.2 °F 46.4 °F 100% 30.04 in 2.0 mi SSE 3.5 mph - N/A   Mostly Cloudy
7:35 AM 46.4 °F 45.2 °F 46.4 °F 100% 30.04 in 2.0 mi South 3.5 mph - N/A   Overcast
7:55 AM 48.2 °F - 48.2 °F 100% 30.04 in 0.5 mi SSE 3.5 mph - N/A   Overcast
8:15 AM 48.2 °F - 48.2 °F 100% 30.05 in 0.5 mi Calm Calm - N/A   Overcast
8:35 AM 48.2 °F - 48.2 °F 100% 30.05 in 0.5 mi SSE 3.5 mph - N/A   Overcast
8:55 AM 48.2 °F - 48.2 °F 100% 30.06 in 2.0 mi Calm Calm - N/A   Overcast
9:15 AM 50.0 °F - 48.2 °F 94% 30.06 in 2.0 mi SE 4.6 mph - N/A   Mostly Cloudy
9:35 AM 50.0 °F - 50.0 °F 100% 30.06 in 2.0 mi SE 5.8 mph - N/A   Mostly Cloudy
9:55 AM 51.8 °F - 51.8 °F 100% 30.07 in 10.0 mi SE 4.6 mph - N/A   Overcast
10:15 AM 51.8 °F - 50.0 °F 94% 30.07 in 10.0 mi Calm Calm - N/A   Overcast
10:35 AM 53.6 °F - 51.8 °F 94% 30.07 in 10.0 mi SSE 3.5 mph - N/A   Overcast
10:55 AM 53.6 °F - 51.8 °F 94% 30.07 in 10.0 mi WSW 3.5 mph - N/A   Overcast
11:15 AM 53.6 °F - 48.2 °F 82% 30.07 in 10.0 mi SW 4.6 mph - N/A   Overcast
11:35 AM 55.4 °F - 46.4 °F 72% 30.07 in 10.0 mi WSW 5.8 mph - N/A   Overcast
11:55 AM 55.4 °F - 44.6 °F 67% 30.06 in 10.0 mi WSW 4.6 mph - N/A   Overcast
12:15 PM 55.4 °F - 44.6 °F 67% 30.07 in 10.0 mi SW 6.9 mph - N/A   Scattered Clouds
12:35 PM 57.2 °F - 44.6 °F 63% 30.06 in 10.0 mi WSW 6.9 mph - N/A   Clear
12:55 PM 57.2 °F - 44.6 °F 63% 30.05 in 10.0 mi WSW 5.8 mph - N/A   Clear
1:15 PM 57.2 °F - 44.6 °F 63% 30.04 in 10.0 mi West 6.9 mph - N/A   Clear
1:35 PM 57.2 °F - 42.8 °F 59% 30.04 in 10.0 mi Calm Calm - N/A   Clear
1:55 PM 57.2 °F - 44.6 °F 63% 30.04 in 10.0 mi WSW 9.2 mph - N/A   Clear
2:15 PM 59.0 °F - 42.8 °F 55% 30.03 in 10.0 mi WSW 9.2 mph - N/A   Clear
2:35 PM 59.0 °F - 42.8 °F 55% 30.03 in 10.0 mi WSW 9.2 mph - N/A   Clear
2:55 PM 59.0 °F - 42.8 °F 55% 30.03 in 10.0 mi WSW 9.2 mph - N/A   Clear
3:15 PM 59.0 °F - 42.8 °F 55% 30.02 in 10.0 mi West 8.1 mph - N/A   Clear
3:35 PM 57.2 °F - 42.8 °F 59% 30.02 in 10.0 mi West 10.4 mph - N/A   Clear
3:55 PM 57.2 °F - 44.6 °F 63% 30.01 in 10.0 mi WSW 10.4 mph - N/A   Clear
4:15 PM 57.2 °F - 44.6 °F 63% 30.01 in 10.0 mi WSW 10.4 mph - N/A   Clear
4:35 PM 57.2 °F - 46.4 °F 67% 30.01 in 10.0 mi WSW 9.2 mph - N/A   Clear
4:55 PM 55.4 °F - 46.4 °F 72% 30.01 in 10.0 mi WSW 9.2 mph - N/A   Clear
5:15 PM 55.4 °F - 46.4 °F 72% 30.01 in 10.0 mi WSW 9.2 mph - N/A   Clear
5:35 PM 55.4 °F - 46.4 °F 72% 30.00 in 10.0 mi SW 8.1 mph - N/A   Partly Cloudy
5:55 PM 53.6 °F - 46.4 °F 77% 30.00 in 10.0 mi SW 5.8 mph - N/A   Clear
6:15 PM 53.6 °F - 48.2 °F 82% 30.00 in 10.0 mi SW 8.1 mph - N/A   Clear
6:35 PM 53.6 °F - 48.2 °F 82% 30.00 in 10.0 mi SW 5.8 mph - N/A   Scattered Clouds
6:55 PM 51.8 °F - 48.2 °F 88% 29.99 in 10.0 mi SSW 4.6 mph - N/A   Mostly Cloudy
7:15 PM 51.8 °F - 48.2 °F 88% 29.99 in 10.0 mi SSW 5.8 mph - N/A   Clear
7:35 PM 51.8 °F - 46.4 °F 82% 29.99 in 10.0 mi SSW 4.6 mph - N/A   Mostly Cloudy
7:55 PM 51.8 °F - 46.4 °F 82% 29.99 in 10.0 mi South 4.6 mph - N/A   Mostly Cloudy
8:15 PM 48.2 °F - 46.4 °F 93% 29.99 in 10.0 mi SSE 5.8 mph - N/A   Scattered Clouds
8:35 PM 48.2 °F - 46.4 °F 93% 29.98 in 10.0 mi SE 5.8 mph - N/A   Partly Cloudy
8:55 PM 48.2 °F - 46.4 °F 93% 29.99 in 10.0 mi SE 5.8 mph - N/A   Scattered Clouds
9:15 PM 48.2 °F - 48.2 °F 100% 29.99 in 10.0 mi SSE 3.5 mph - N/A   Overcast
9:35 PM 48.2 °F - 48.2 °F 100% 29.99 in 10.0 mi SSE 5.8 mph - N/A   Overcast
9:55 PM 48.2 °F - 46.4 °F 93% 29.99 in 10.0 mi SSE 6.9 mph - N/A   Mostly Cloudy
10:15 PM 46.4 °F 42.4 °F 46.4 °F 100% 29.99 in 10.0 mi SSE 8.1 mph - N/A   Scattered Clouds
10:35 PM 46.4 °F 42.9 °F 46.4 °F 100% 29.98 in 10.0 mi SE 6.9 mph - N/A   Scattered Clouds
10:55 PM 46.4 °F 42.9 °F 46.4 °F 100% 29.98 in 10.0 mi SE 6.9 mph - N/A   Mostly Cloudy
11:15 PM 46.4 °F 42.4 °F 46.4 °F 100% 29.98 in 10.0 mi SE 8.1 mph - N/A   Overcast
11:35 PM 46.4 °F 41.9 °F 46.4 °F 100% 29.98 in 10.0 mi SE 9.2 mph - N/A   Scattered Clouds
11:55 PM 46.4 °F 42.4 °F 46.4 °F 100% 29.98 in 10.0 mi SSE 8.1 mph - N/A   Mostly Cloudy